Skip Page Navigation
NASA JPL Caltech
NASA Logo - Jet Propulsion Laboratory + View the NASA Portal
+ Near-Earth Object (NEO) Program
Search JPL
JPL Home Earth Solar System Stars & Galaxies Technology
JPL Solar System Dynamics
BODIES ORBITS EPHEMERIDES TOOLS PHYSICAL DATA DISCOVERY FAQ SITE MAP
JPL Small-Body Database Browser
Search: [ help ]  
359369 (2009 YG)
Classification: Apollo [NEO, PHA]          SPK-ID: 2359369
Ephemeris | Orbit Diagram | Orbital Elements | Physical Parameters | Discovery Circumstances | Close-Approach Data ]

[ hide orbit diagram ]
Orbit Diagram
Note: Make sure you have Java enabled on your browser to see the applet. This applet is provided as a 3D orbit visualization tool. The applet was implemented using 2-body methods, and hence should not be used for determining accurate long-term trajectories (over several years or decades) or planetary encounter circumstances. For accurate long-term ephemerides, please instead use our Horizons system.
Orbit Viewer

Additional Notes: the orbits shown in the applet are color coded. The planets are white lines, and the asteroid/comet is a blue line. The bright white line indicates the portion of the orbit that is above the ecliptic plane, and the darker portion is below the ecliptic plane. Likewise for the asteroid/comet orbit, the light blue indicates the portion above the ecliptic plane, and the dark blue the portion below the ecliptic plane.

Orbit Viewer applet originally written and kindly provided by Osamu Ajiki (AstroArts), and further modified by Ron Baalke (JPL).


Orbital Elements at Epoch 2456400.5 (2013-Apr-18.0) TDB
Reference: JPL 26 (heliocentric ecliptic J2000)
 Element Value Uncertainty (1-sigma)   Units 
e .6977636241573384 1.2158e-07  
a 2.146514955558444 4.8144e-08 AU
q .648754900860056 2.6083e-07 AU
i 3.387705866789112 2.1319e-05 deg
node 138.8973320172226 0.00021935 deg
peri 67.44253223353456 0.00022152 deg
M 1.40631488205157 1.3324e-05 deg
tp 2456396.012759189880
(2013-Apr-13.51275919)
4.2381e-05 JED
period 1148.680649163456
3.14
3.8645e-05
1.058e-07
d
yr
n .3134030335256152 1.0544e-08 deg/d
Q 3.644275010256832 8.1737e-08 AU
  Orbit Determination Parameters
   # obs. used (total)      109  
   data-arc span      2335 days (6.39 yr)  
   first obs. used      2006-10-22  
   last obs. used      2013-03-14  
   planetary ephem.      DE405  
   SB-pert. ephem.      SB405-CPV-2  
   condition code      0  
   fit RMS      .65764  
   data source      ORB  
   producer      Otto Matic  
   solution date      2013-Apr-29 15:42:03  

Additional Information
 Earth MOID = .0128026 AU 
 T_jup = 3.343 
[ show covariance matrix ]

Ephemeris | Orbit Diagram | Orbital Elements | Physical Parameters | Discovery Circumstances | Close-Approach Data ]

Physical Parameter Table
Parameter Symbol Value Units Sigma Reference Notes
absolute magnitude H 18.42 mag .48499 26 autocmod 2.5c

359369 (2009 YG)          Discovered 2009-Dec-17 by LINEAR at Socorro (704)
Reference: 20130327/Numbers.arcLast Updated: 2013-03-29

[ show close-approach data ]
Ephemeris | Orbit Diagram | Orbital Elements | Physical Parameters | Discovery Circumstances | Close-Approach Data ]
ABOUT SSD CREDITS/AWARDS PRIVACY/COPYRIGHT GLOSSARY LINKS
FirstGov 2013-May-19 06:51 UT
(server date/time)  
NASA Home Page
Site Manager:   Donald K. Yeomans
Webmaster  Alan B. Chamberlin